Location: Unspecified
(41.1637°N, 24.2901°E)
Time: 01:49:17
(UTC+01:00)

ISS - Pass Details

Date: 13 January 2026
Orbit: 413 x 424 km, 51.6° (Epoch: 16 January)

Event Time Altitude Azimuth Distance (km) Brightness Sun altitude
Rises 16:59:05 0° 215° (SW) 2,334 1.1 -8.1°
Reaches altitude 10° 17:01:14 10° 207° (SSW) 1,476 -0.2 -8.5°
Maximum altitude 17:04:20 38° 137° (SE) 648 -3.0 -9.0°
Enters shadow 17:06:55 14° 72° (ENE) 1,283 -2.0 -9.5°
